Theta_e
303 303 302 302 302 302 301 301 301 302 302 301 302 303 304 305 304 305 308 314 305 299 302 304 304 301 302 301 295 300 299 300 300 296 296 297 294 297 293 297 295 293 292 292 294 291 287 306 303 295 303 308 308 308
302 302 302 302 302 301 302 302 301 300 302 301 301 303 303 305 306 305 302 310 313 301 301 308 309 309 306 306 302 301 299 300 299 296 297 297 293 294 294 287 299 293 297 296 297 296 306 306 305 309 311 305 309 309
302 302 302 302 302 302 301 301 301 301 301 301 302 302 304 305 305 305 303 304 307 301 300 301 301 308 311 309 310 298 300 303 300 307 298 297 292 298 290 293 296 300 303 297 298 301 302 304 305 306 306 307 311 311
301 302 302 301 301 301 301 301 301 302 302 302 302 302 303 304 305 305 305 305 303 300 294 298 308 305 310 311 311 311 308 307 306 304 297 294 291 300 296 297 295 299 301 299 299 302 303 303 307 309 310 311 311 311
300 300 301 301 301 301 301 301 301 301 302 302 302 303 303 304 306 306 307 308 304 300 294 297 302 304 306 307 306 307 306 305 301 296 294 292 297 295 299 298 294 301 299 297 297 302 302 303 307 309 310 310 311 310
300 300 300 300 301 301 301 301 301 301 301 302 303 303 303 304 306 307 297 306 306 303 295 291 302 302 305 306 305 305 305 303 301 297 294 298 302 299 294 294 301 304 305 306 303 307 305 307 308 310 310 311 312 312
300 300 300 300 300 300 301 300 300 301 301 302 302 303 304 305 305 301 299 305 305 307 296 290 295 302 303 303 305 304 306 300 298 296 295 299 299 298 296 293 300 303 304 306 307 306 304 306 305 309 310 312 312 312
300 301 300 301 301 301 301 300 301 301 301 302 302 303 304 305 304 301 305 305 308 300 298 291 292 295 302 299 298 305 301 298 298 297 300 298 300 297 291 299 301 302 303 304 305 307 307 308 308 308 311 311 310 311
299 300 301 300 300 301 301 301 301 301 302 302 303 303 304 302 298 301 307 309 310 302 292 291 289 290 301 299 301 300 301 292 301 294 295 299 296 293 297 300 301 302 303 303 305 306 306 306 306 307 308 309 309 310
300 300 300 301 301 301 301 301 300 301 301 302 302 298 295 302 308 307 302 297 295 298 298 291 296 291 297 296 295 295 298 294 290 294 299 293 293 300 302 303 304 304 305 306 303 303 304 304 306 308 308 309 311 311
300 300 300 300 301 301 301 301 300 301 301 300 296 295 305 306 302 298 293 291 291 287 291 291 293 290 298 289 288 294 293 295 288 294 294 292 293 300 305 305 307 308 308 308 308 308 308 308 308 309 308 310 312 311
299 299 300 300 300 300 300 299 300 300 300 299 296 302 302 296 293 288 288 290 288 287 292 291 292 293 294 295 290 292 290 294 287 299 293 290 298 303 303 303 306 309 309 309 310 308 308 308 308 311 311 312 311 310
298 299 299 299 300 300 299 299 300 300 301 299 293 288 292 289 284 283 282 285 286 292 294 294 292 294 293 294 290 290 287 288 297 291 289 293 300 301 302 302 303 306 309 308 309 309 308 308 307 308 309 309 309 308
298 299 299 299 299 299 299 299 300 300 296 289 286 282 285 285 287 289 289 291 294 296 296 296 293 293 292 289 290 286 292 293 287 286 288 297 298 300 301 301 302 302 302 304 306 307 307 306 306 306 308 307 305 306
298 298 298 299 298 299 298 298 299 299 292 288 288 282 286 291 293 293 294 294 296 299 297 293 292 293 290 287 289 288 285 284 287 288 294 298 300 300 299 299 300 300 301 305 304 305 306 305 305 305 305 305 304 305
297 296 295 297 297 299 299 299 299 296 288 290 287 285 289 288 289 292 293 293 298 297 298 297 292 287 287 290 286 284 284 284 290 293 297 299 299 298 297 298 301 298 299 302 303 303 302 302 303 304 302 302 302 301
296 295 297 298 298 299 299 297 294 289 288 286 285 290 290 291 291 295 296 296 300 296 289 292 284 285 292 286 285 291 288 292 296 297 299 300 297 296 296 296 296 295 295 295 296 297 297 300 301 300 298 299 301 301
295 297 297 298 299 297 296 296 291 287 284 288 286 290 292 292 291 292 294 295 294 293 293 288 292 286 285 283 287 292 294 296 298 299 299 297 295 295 297 293 294 293 292 293 295 295 296 297 296 297 297 299 300 300
295 296 297 298 298 294 290 290 292 284 287 290 291 292 292 292 294 294 294 295 296 297 294 292 287 286 288 292 292 294 296 297 297 299 297 296 294 296 295 293 293 293 294 293 294 295 294 294 295 296 297 298 296 297
297 297 297 298 297 292 287 287 291 288 286 290 292 290 291 291 293 294 294 294 294 293 289 286 287 290 292 295 297 298 298 299 299 296 295 293 296 295 295 295 295 294 293 293 294 291 294 294 294 295 295 295 295 295
296 297 297 295 292 292 290 288 287 288 288 288 292 291 290 293 292 291 291 293 290 289 288 291 292 294 297 298 299 299 299 299 299 297 294 292 296 296 294 296 296 294 293 293 292 292 291 292 293 294 294 293 293 294
297 297 296 294 288 289 288 291 288 290 287 289 290 291 289 287 288 289 293 289 289 291 293 293 294 296 296 296 298 299 300 301 301 299 295 297 296 294 294 297 297 295 294 294 293 292 291 293 294 293 292 292 292 292
296 296 292 288 287 285 286 292 286 289 285 288 291 287 288 288 292 295 289 292 293 296 297 297 297 299 298 300 300 300 301 300 299 298 298 300 300 297 300 301 301 298 295 293 295 293 292 290 291 291 292 291 291 291
295 289 287 287 287 284 289 286 290 288 288 286 286 284 287 291 294 290 289 292 296 301 299 299 299 299 300 301 299 300 300 300 300 299 301 301 300 300 302 302 301 300 300 296 295 294 293 293 291 292 291 290 290 289
285 285 285 282 287 284 283 284 285 285 283 286 284 286 289 293 288 288 288 294 298 299 299 300 300 300 299 299 301 302 303 302 301 300 303 304 305 303 301 302 302 299 300 296 294 293 292 293 292 292 291 290 290 289
280 285 283 284 285 283 284 282 284 285 286 285 287 290 293 289 286 285 290 292 291 292 293 295 295 296 296 298 300 302 305 307 304 302 304 306 305 304 302 300 297 298 301 299 295 293 293 292 292 291 291 289 287 290
280 283 288 292 290 289 287 288 288 287 285 285 289 288 288 284 284 289 294 294 290 291 293 294 296 296 297 298 301 306 308 309 308 305 308 308 307 307 306 302 295 298 301 300 298 295 293 292 292 292 292 291 291 291
286 287 284 288 287 289 285 286 285 286 288 292 291 285 284 285 286 291 291 294 296 299 301 298 297 299 301 303 305 308 309 310 308 307 307 307 308 307 308 306 305 289 302 302 300 297 295 294 293 293 292 291 291 291
286 291 289 286 287 288 288 287 289 293 295 293 289 288 289 295 294 292 294 297 298 297 297 298 300 303 304 307 308 309 310 309 306 302 301 301 301 303 307 305 301 302 303 301 287 294 296 295 295 294 294 292 292 292
286 291 287 287 286 287 292 294 293 296 297 297 296 296 295 296 296 298 299 300 298 295 297 299 302 303 302 302 302 305 309 310 310 307 303 303 304 306 307 305 304 304 303 301 299 296 287 293 291 294 293 293 293 292
291 291 288 289 288 292 294 296 296 296 296 296 297 294 293 294 296 299 301 301 299 298 300 299 299 299 300 300 299 299 300 307 307 308 309 310 310 308 308 307 306 304 303 301 299 297 295 294 293 292 292 292 292 293
289 287 287 285 289 294 296 294 293 293 294 293 292 294 294 295 290 295 301 301 299 297 293 297 298 298 300 301 299 298 291 300 302 305 308 309 310 310 309 307 306 303 303 301 299 298 298 296 295 293 293 293 294 294
289 290 290 290 290 289 294 293 292 291 293 294 292 293 296 292 289 294 302 303 300 298 298 299 300 301 302 302 298 297 293 299 297 289 288 288 293 300 307 307 304 300 302 301 299 299 299 299 298 298 298 297 297 298
Wind_Speed
11 10 10 10 9 10 10 9 9 10 9 8 7 10 10 7 5 4 3 3 3 4 11 16 16 16 12 7 6 5 8 3 6 4 4 3 5 3 6 9 10 7 7 6 5 8 7 6 14 12 12 14 16 14
11 11 11 11 11 11 10 10 9 9 10 8 8 9 10 9 7 5 5 4 3 4 8 11 14 14 14 12 9 1 7 6 4 4 3 4 6 5 7 6 2 5 5 9 8 9 18 19 15 11 11 16 13 12
12 13 12 12 12 11 11 10 10 11 9 9 9 9 10 10 9 7 5 5 4 6 12 14 13 11 13 18 17 10 6 7 5 5 4 3 7 5 6 8 14 12 10 9 13 4 11 19 20 18 16 15 10 9
13 13 13 12 12 11 11 12 11 11 11 10 10 9 10 10 12 8 5 4 4 5 6 4 2 3 3 7 13 16 15 2 3 4 6 5 4 7 8 12 14 14 18 14 18 19 15 10 9 9 9 8 8 8
14 14 14 14 13 12 12 11 12 13 12 12 11 11 11 12 11 8 7 7 7 5 6 8 17 17 15 14 19 17 14 15 8 4 6 5 4 3 12 18 15 16 21 15 12 5 9 12 11 12 11 10 9 8
15 15 15 15 14 13 13 13 13 13 12 13 13 12 11 12 7 5 3 3 6 6 3 5 8 9 7 6 10 13 12 11 10 4 4 6 9 5 8 11 12 14 13 17 19 16 11 13 13 13 12 10 8 8
14 14 16 16 15 15 14 13 14 14 14 14 14 13 12 11 5 6 4 4 2 6 3 4 6 5 3 5 4 5 7 5 7 5 7 12 8 7 9 20 25 18 16 15 17 17 18 18 15 13 8 7 4 4
16 17 16 15 15 16 16 15 14 14 14 13 12 14 13 12 9 9 10 11 6 3 3 4 6 7 3 4 4 4 6 6 7 6 7 9 6 5 11 21 18 15 15 18 18 19 20 18 16 16 12 8 9 7
18 17 18 17 16 15 16 14 13 13 11 10 11 12 8 6 5 6 7 14 7 6 4 3 5 4 3 3 3 4 3 5 4 7 9 8 11 11 19 17 19 17 15 16 16 16 11 13 15 15 18 14 11 8
19 18 17 17 17 16 14 13 13 12 10 10 6 5 5 5 15 13 4 5 5 5 5 6 8 8 1 4 4 4 6 7 7 10 7 9 12 24 22 23 23 23 21 19 19 18 19 16 14 16 17 14 11 6
19 19 18 17 16 15 15 14 12 10 9 4 5 6 3 8 2 4 5 6 5 4 5 5 11 12 6 6 4 5 4 4 4 5 6 6 6 4 14 18 18 21 18 19 20 20 18 18 10 11 13 12 7 5
16 18 18 17 18 16 15 13 12 9 5 2 2 5 2 3 4 5 6 5 5 6 7 6 7 7 3 3 5 4 5 5 7 4 5 4 4 10 14 19 20 18 19 22 17 16 15 16 9 8 7 7 5 3
17 17 18 15 16 16 13 17 16 13 8 2 4 2 5 4 7 7 9 6 5 5 5 6 6 4 5 5 4 5 6 6 4 5 6 5 10 12 16 18 19 20 22 20 12 10 12 8 7 7 8 6 3 4
16 14 16 16 17 13 16 17 13 7 5 4 4 5 6 6 7 6 7 3 4 4 5 5 2 5 3 4 4 5 5 4 6 8 12 5 12 14 15 17 19 19 17 19 8 8 11 12 11 8 6 5 4 4
14 12 9 12 8 12 14 12 11 5 3 5 4 5 7 3 2 1 3 2 5 3 4 3 3 4 5 4 4 3 4 7 6 5 5 9 15 17 17 18 17 14 10 13 6 8 9 9 9 7 6 5 4 2
6 4 4 10 14 16 14 10 5 3 2 4 5 4 3 3 7 7 5 5 2 4 3 4 2 3 6 4 7 9 7 7 2 3 9 11 16 17 17 19 14 4 4 5 6 7 6 5 5 5 5 4 5 3
13 4 11 16 14 13 12 4 2 3 3 3 4 5 6 6 5 2 2 3 2 4 4 4 5 9 3 4 5 5 6 5 6 10 9 13 16 18 16 7 3 4 5 4 3 2 4 3 4 4 5 4 4 3
3 3 5 8 11 8 3 4 2 3 5 5 5 7 8 7 9 9 7 6 6 7 3 4 4 6 6 6 9 6 5 7 9 9 9 12 17 14 3 5 5 7 6 5 3 1 2 2 1 2 3 3 3 3
6 5 5 10 6 4 4 4 2 3 6 6 7 8 8 8 10 10 9 9 7 7 4 3 8 7 10 11 10 11 9 9 10 9 7 11 11 7 1 3 2 2 4 2 1 0 1 1 0 0 0 1 2 2
7 6 10 5 4 3 3 2 2 5 5 4 6 8 9 10 9 9 10 9 10 9 8 6 10 11 10 9 9 10 10 10 9 8 8 5 5 3 3 3 2 3 3 3 3 1 1 1 1 2 1 2 3 3
7 6 10 8 1 1 1 3 5 3 4 5 6 7 6 8 10 10 9 8 8 12 13 12 13 12 14 12 11 10 10 9 9 6 7 9 6 4 3 3 4 4 3 2 2 3 1 2 2 2 3 4 4 4
2 8 2 2 1 3 2 4 3 1 3 5 8 9 8 8 8 9 3 5 5 11 12 12 12 12 12 14 12 12 12 10 7 5 8 11 2 3 4 5 4 3 2 2 1 3 3 2 3 4 4 5 5 5
6 2 3 1 3 3 1 4 5 5 6 4 3 4 3 3 3 6 4 6 7 10 10 12 14 14 13 13 12 11 9 7 5 5 9 6 3 5 5 4 3 3 4 3 3 5 4 5 5 5 5 5 6 6
5 4 3 3 4 3 3 5 4 4 4 4 3 5 4 3 5 5 7 7 6 2 4 6 6 7 8 11 9 7 7 8 7 8 9 7 3 4 4 4 4 3 3 5 4 6 5 5 6 5 5 5 5 6
3 4 3 4 4 4 5 4 5 4 5 5 4 5 3 3 4 5 7 0 1 1 2 4 5 5 5 6 5 3 6 9 10 13 11 6 4 6 5 4 4 4 5 5 5 7 6 5 6 6 6 6 7 8
4 6 5 5 4 5 4 4 4 5 4 4 5 4 2 4 5 3 4 4 5 9 9 8 7 7 6 6 7 5 2 2 5 7 5 5 6 6 6 6 6 6 5 6 7 8 9 7 7 8 8 9 8 9
3 5 4 4 3 4 4 4 4 5 4 3 2 2 3 3 3 3 4 5 5 8 9 7 6 5 6 5 5 6 5 4 5 3 2 4 5 4 5 6 8 5 7 7 10 9 9 10 9 9 9 8 7 8
3 3 4 2 4 5 5 4 3 4 3 2 3 2 4 3 2 3 3 10 9 7 1 6 7 7 7 6 6 6 4 2 3 4 4 4 4 4 6 6 8 7 9 8 10 11 9 10 9 10 10 9 8 8
4 3 3 5 5 4 3 4 4 2 2 3 6 4 1 1 4 5 7 7 6 6 7 6 4 1 3 3 4 4 2 4 6 8 8 6 7 6 7 9 10 9 9 10 8 11 13 11 10 11 11 9 9 9
2 3 3 3 4 4 2 4 4 4 4 4 3 1 2 3 6 5 7 7 8 7 6 3 5 6 7 7 7 6 3 3 2 3 3 1 5 9 10 10 10 10 10 11 13 15 11 10 9 10 11 10 9 10
1 1 4 4 4 3 3 3 5 5 4 3 2 2 5 3 1 3 7 7 7 7 7 8 7 8 8 8 7 7 6 3 5 5 3 3 4 9 10 11 10 10 11 12 13 14 13 12 11 12 12 13 14 13
4 5 3 4 3 2 3 2 3 3 2 1 3 3 2 2 2 3 6 7 8 9 9 10 8 8 6 5 6 5 5 8 8 7 9 6 6 9 11 11 10 10 12 13 13 14 17 16 14 13 13 15 16 16
5 5 5 4 3 3 1 4 1 2 2 2 3 0 2 4 4 3 3 6 7 9 9 9 8 7 8 7 8 7 8 8 5 2 5 7 2 9 10 10 11 9 14 13 13 14 16 17 16 17 17 18 17 18
Wind_Direction
266 267 269 272 273 275 280 285 294 304 309 307 329 320 323 320 318 303 288 193 246 256 280 275 270 269 269 250 268 4 308 170 271 287 298 11 284 11 286 288 290 292 306 287 281 274 284 39 328 337 331 323 322 342
268 267 266 268 268 273 271 278 284 289 296 302 308 310 308 315 298 261 272 224 216 243 269 308 277 274 271 272 279 230 286 300 313 288 321 316 286 287 284 286 266 265 239 315 299 300 318 312 307 304 306 312 317 339
270 268 264 263 264 263 273 276 280 282 286 288 289 298 302 305 305 281 271 287 287 272 273 246 251 237 230 232 241 247 235 223 221 253 297 276 261 272 275 283 272 275 258 255 301 258 305 310 300 290 288 291 329 336
273 271 266 263 264 268 271 272 272 276 277 280 280 285 288 288 293 289 247 228 248 293 278 319 17 244 219 227 216 211 245 198 291 274 246 246 230 251 267 281 279 282 294 278 283 284 284 256 349 340 317 317 319 330
266 267 268 265 260 258 270 268 277 273 273 274 277 279 281 286 288 278 265 228 219 260 323 309 308 272 245 240 227 236 237 233 242 224 225 232 243 287 271 271 263 258 260 252 264 348 292 295 312 318 310 306 330 336
256 260 265 266 259 256 259 261 268 271 274 278 272 275 271 282 295 272 281 180 199 177 266 276 328 285 268 260 248 231 220 223 231 204 234 232 205 228 274 276 274 253 250 256 258 272 289 285 298 293 286 291 326 328
262 266 260 260 258 256 251 257 264 269 271 274 274 281 279 284 271 242 343 45 146 160 234 261 255 168 247 262 197 205 196 192 221 221 233 253 239 187 262 268 264 273 271 252 255 269 269 271 269 269 298 301 297 327
268 264 264 264 256 251 248 254 258 264 267 268 266 270 279 274 267 252 239 187 158 214 216 255 267 284 156 239 227 168 176 194 208 232 244 247 247 166 254 253 273 273 274 272 271 272 264 264 269 270 249 278 286 283
267 266 256 256 258 256 243 247 259 268 266 269 275 281 276 220 225 227 80 188 208 258 263 214 261 280 123 235 249 187 225 214 236 224 233 240 215 217 241 269 292 302 296 287 285 285 267 254 255 252 249 251 263 275
258 260 259 251 249 252 242 237 252 263 262 264 255 223 220 202 111 130 146 160 187 219 230 253 242 239 259 313 283 289 171 226 202 207 236 232 255 263 282 287 291 294 293 289 275 265 263 260 264 261 243 233 245 260
260 254 251 251 245 243 233 234 241 256 251 213 222 225 98 141 184 202 200 199 163 221 216 221 238 254 255 250 240 273 289 242 241 182 216 210 235 280 7 348 330 316 307 295 268 258 255 259 276 259 230 217 204 225
271 260 254 250 245 235 228 231 236 222 226 162 335 300 148 191 197 209 196 172 213 227 171 218 205 192 221 189 212 236 252 247 254 128 227 232 114 10 353 345 337 335 318 304 283 250 234 240 243 229 204 205 195 201
270 254 249 251 232 229 212 234 234 236 272 226 214 247 197 176 198 212 188 181 198 200 196 190 177 155 179 194 211 239 239 238 294 234 238 249 26 354 344 337 336 334 329 309 280 234 216 181 161 183 196 197 179 192
263 250 260 236 229 222 217 231 223 218 222 230 209 220 220 173 231 194 228 220 139 201 179 186 170 197 133 188 246 249 245 272 256 243 237 36 357 336 330 329 327 327 331 301 284 215 171 172 158 162 181 175 197 196
256 242 250 226 175 192 210 218 228 199 245 210 215 241 206 257 39 335 253 217 201 223 233 153 197 230 168 224 206 268 253 250 229 294 3 336 333 326 323 323 319 319 304 263 195 193 173 165 159 156 164 181 201 194
155 116 185 177 188 208 209 212 187 182 252 240 211 241 197 239 233 218 212 220 206 265 222 248 270 244 238 217 183 212 235 243 294 343 310 328 324 319 308 311 302 308 313 284 166 157 139 158 154 150 163 199 195 199
183 207 194 200 200 202 187 164 159 221 254 218 222 233 257 275 280 223 218 238 312 246 232 205 212 214 266 234 236 227 255 350 296 304 323 322 322 309 310 307 35 52 57 68 73 69 104 152 137 168 192 189 205 188
207 154 143 165 175 143 166 195 192 236 234 216 239 217 213 245 267 266 249 235 238 247 230 230 298 243 235 246 257 264 266 313 324 323 328 327 327 314 319 60 48 47 40 11 335 70 9 357 278 191 201 192 174 171
171 158 170 164 150 141 151 175 221 266 236 271 243 254 265 255 251 261 271 269 236 247 238 231 234 231 244 259 273 285 293 301 314 323 317 341 315 322 112 100 54 162 155 168 199 100 68 27 238 264 210 143 106 107
164 133 114 115 206 130 160 172 255 261 265 250 249 255 255 254 261 250 247 241 232 222 221 217 236 244 245 248 257 275 280 305 310 304 311 313 298 266 258 224 157 134 110 117 104 351 137 126 68 7 51 79 108 105
171 141 136 136 232 240 226 164 204 232 287 271 269 250 252 252 247 248 247 242 234 228 235 231 245 255 259 264 268 274 279 283 285 284 300 291 294 174 182 212 166 173 188 177 176 136 154 63 96 87 83 76 77 79
111 129 98 136 111 187 249 196 279 337 236 268 285 238 256 259 247 239 172 206 239 235 234 243 248 254 255 253 257 261 271 277 262 273 268 272 266 202 193 205 169 155 165 139 140 118 105 82 93 84 87 84 77 98
89 121 124 173 199 208 232 175 224 211 240 234 218 244 227 235 267 151 212 219 237 232 231 235 242 250 263 269 271 264 252 244 235 284 276 270 233 206 223 189 154 154 140 141 130 116 99 98 89 94 93 90 95 92
124 162 192 207 225 218 195 216 221 254 246 245 249 259 260 213 163 218 241 244 228 229 233 230 233 240 250 249 246 238 219 190 198 239 259 264 233 186 204 166 163 150 104 128 147 132 126 115 117 112 107 101 97 97
169 172 218 210 205 226 231 230 219 229 253 239 254 259 247 185 234 251 258 307 337 303 235 244 262 269 275 282 296 264 204 210 207 223 235 225 203 148 180 173 144 131 135 144 145 130 135 124 120 120 114 110 111 110
226 177 209 200 190 224 215 241 237 234 260 246 240 273 257 250 247 288 39 19 329 306 294 290 274 276 265 257 279 279 272 221 237 237 214 203 199 183 180 174 155 170 164 151 149 150 145 135 134 129 117 111 111 117
239 200 195 222 244 269 258 265 261 254 259 240 236 281 311 306 327 353 275 269 273 258 247 244 242 237 253 248 254 265 269 247 253 301 33 185 183 194 177 173 169 169 172 157 149 158 153 144 146 139 135 129 122 118
263 274 238 196 235 236 275 293 279 245 263 298 279 316 7 335 289 288 322 300 305 320 230 202 217 232 237 246 241 244 205 166 170 166 114 108 153 178 168 144 150 169 159 156 137 142 149 140 145 140 133 127 123 121
238 215 242 258 222 234 224 235 257 265 321 327 338 14 34 85 35 340 312 327 4 0 30 33 36 290 246 285 285 285 235 223 200 202 189 148 162 163 158 132 147 165 140 135 98 128 139 142 149 131 130 126 121 123
221 198 264 254 240 235 237 206 271 314 304 305 320 270 87 77 23 313 318 0 41 14 328 321 24 20 38 29 12 355 232 219 242 308 316 223 159 146 146 151 159 150 143 139 130 123 118 129 117 127 131 137 133 131
124 157 241 247 277 282 308 307 282 271 264 289 38 5 73 94 133 295 353 359 13 33 17 25 39 32 26 20 10 345 335 356 11 336 301 250 158 157 154 155 154 152 151 142 141 145 146 151 142 138 145 145 145 149
208 231 262 278 292 324 296 272 308 304 346 350 93 111 192 221 89 4 348 358 19 19 24 13 8 8 12 7 23 331 300 298 293 276 257 221 183 154 155 147 155 154 152 147 150 149 154 150 150 155 161 158 164 159
234 238 248 269 255 242 82 296 268 306 217 92 89 34 41 54 56 359 297 12 15 13 3 359 352 352 353 13 14 342 317 306 293 240 297 303 274 145 149 148 151 160 154 153 155 161 163 159 158 161 157 161 167 161